Wind_Speed
77 75 73 70 67 65 63 61 58 56 54 53 52 51 51 50 47 45 45 43 43 43 39 36 36 34 33 33 33 34 38 42 47 50 51 51 51 51 50 49 49 48 46 46 46 45 44 43 43 43 43 43 43 43 43 42 42 42 42 42 43 43 44 45 45 45 44 44 43 42 42 42 43 43 43 42 42 41 41 40 40 40 40 40 40 40 40
79 77 75 73 70 67 65 63 61 58 56 55 55 54 53 51 49 48 47 46 46 47 42 38 37 35 33 32 32 33 34 36 39 43 47 50 51 51 52 52 52 51 49 48 47 46 46 46 47 47 46 46 45 45 45 44 44 44 44 44 44 45 46 47 47 46 45 46 46 44 44 44 44 44 44 44 43 43 42 42 42 42 42 42 42 42 42
82 80 78 75 73 70 68 65 62 60 58 58 58 56 54 53 52 51 50 48 47 48 46 41 38 37 35 34 33 33 32 32 34 37 42 46 49 50 52 53 54 53 52 51 50 49 49 49 49 49 49 49 48 47 46 46 46 46 46 46 46 47 49 49 48 47 48 48 47 46 45 45 45 45 45 45 44 44 44 44 44 44 43 44 44 44 45
86 84 81 78 75 73 70 67 64 62 60 60 59 57 56 55 54 53 51 49 48 50 49 43 40 39 37 36 36 35 33 32 33 34 36 40 43 46 49 51 53 54 54 54 53 53 52 52 51 50 50 49 49 48 48 48 47 46 47 47 48 49 50 50 49 49 49 49 49 48 47 46 46 46 46 46 46 46 46 46 46 46 46 46 46 46 47
89 86 84 80 77 75 73 69 66 65 63 63 62 61 58 57 55 54 52 50 51 51 50 44 41 40 39 38 37 36 34 33 32 33 34 35 38 40 43 46 49 52 53 54 55 55 54 54 53 52 52 51 51 51 50 49 49 48 49 50 50 51 51 51 51 51 50 50 50 50 49 48 47 47 47 48 49 49 49 49 49 49 49 49 49 50 50
90 88 85 82 80 78 76 72 69 67 66 65 64 63 60 58 57 55 54 54 52 51 51 46 43 43 42 40 37 33 31 31 32 33 34 34 35 36 38 41 43 46 49 52 53 54 54 54 54 54 54 54 54 53 52 52 51 51 52 52 53 53 53 53 53 53 53 53 53 53 52 51 50 50 51 51 52 52 52 52 52 52 52 52 53 53 52
91 88 87 86 84 81 78 74 71 69 68 67 66 65 63 62 60 58 57 56 53 53 54 50 45 44 44 41 37 34 32 31 32 33 34 35 35 36 36 38 40 42 44 46 48 50 51 52 52 53 54 54 54 54 54 54 55 55 55 55 55 55 55 55 55 55 55 56 55 55 55 54 54 54 54 55 56 56 55 54 54 54 54 55 56 56 55
92 90 90 89 87 83 80 76 73 72 71 69 68 68 67 65 63 61 59 57 55 56 57 53 48 47 44 42 41 39 36 35 34 34 34 35 37 38 38 39 39 40 40 41 42 43 44 45 47 48 49 51 51 52 53 54 55 56 57 57 57 57 57 58 58 58 58 58 58 58 58 58 58 59 59 59 59 59 58 58 57 57 57 58 58 59 59
93 92 92 91 88 84 81 78 76 75 74 72 71 71 70 67 65 63 60 58 57 58 58 55 52 50 47 44 43 42 41 39 37 36 36 37 38 39 40 40 39 39 39 38 38 38 39 40 41 42 43 44 45 46 47 49 51 52 53 54 55 55 56 57 58 58 59 59 60 60 60 61 62 62 62 62 62 62 62 61 61 61 61 61 61 61 62
95 94 93 92 90 87 84 82 80 78 77 75 73 73 72 69 68 66 63 61 60 60 60 57 55 53 51 48 48 46 43 41 38 37 37 38 39 39 39 38 38 37 36 36 35 35 36 37 37 37 38 39 39 40 41 42 43 44 46 47 48 49 50 51 51 52 53 53 54 55 56 57 58 59 59 60 60 60 60 60 61 61 61 61 61 61 61
97 96 94 92 91 90 89 86 83 81 79 78 76 75 74 72 70 69 67 64 63 62 62 60 58 56 54 53 52 49 46 44 42 39 38 38 39 39 38 37 36 34 33 33 33 33 33 34 34 35 35 36 36 37 37 37 38 39 41 41 42 43 43 44 45 46 46 47 48 50 51 51 52 53 53 53 53 53 54 54 55 55 55 55 55 55 54
97 97 95 93 93 93 91 88 85 83 82 80 79 78 77 75 74 72 70 68 66 65 64 63 61 59 57 56 55 52 50 49 46 43 41 41 41 41 41 40 38 36 35 34 35 35 34 34 34 34 34 35 35 35 35 36 37 38 38 38 38 39 40 41 42 43 42 43 44 46 46 46 47 47 48 47 47 47 48 48 47 47 47 48 49 49 48
97 98 97 96 96 95 92 90 88 85 84 83 82 81 80 78 76 75 73 71 70 68 66 65 64 61 59 58 57 56 55 53 50 47 46 44 44 44 44 44 42 40 39 38 37 37 37 37 36 36 36 36 36 36 36 38 39 39 38 38 38 39 40 40 41 41 41 41 42 43 43 43 43 43 44 44 43 44 44 44 44 44 44 44 45 46 46
97 98 98 99 98 96 94 92 90 88 87 86 85 84 82 80 78 76 75 73 72 71 69 68 66 64 63 61 60 60 59 57 55 52 50 48 48 47 47 47 46 44 43 42 40 40 39 38 38 38 38 38 39 39 39 41 41 41 40 40 40 41 41 41 41 42 41 41 41 41 42 42 42 42 42 42 42 43 43 43 43 43 43 43 44 44 45
97 98 100 101 100 98 95 93 92 91 90 89 87 85 84 82 80 78 76 75 75 74 72 71 69 67 66 64 63 62 62 61 59 56 54 52 51 51 50 49 48 47 46 45 44 42 42 41 41 40 40 41 41 41 42 43 44 43 43 43 43 43 44 44 43 43 43 43 43 43 43 43 43 43 43 43 43 43 43 43 43 43 43 45 45 44 45
97 98 99 100 100 97 95 93 93 93 93 91 89 87 86 84 82 79 78 78 77 76 76 74 72 70 69 67 66 65 64 63 62 60 58 56 55 54 53 52 51 50 49 48 47 46 45 44 44 44 44 44 43 44 45 45 45 46 46 46 46 47 47 47 46 45 45 45 45 45 45 45 45 45 46 45 45 45 45 45 44 44 45 46 46 46 47
94 95 96 97 97 96 94 94 94 95 95 93 91 90 88 86 85 82 81 79 79 78 78 77 76 74 72 71 69 68 67 66 65 64 62 59 58 57 56 55 54 53 52 51 50 49 48 47 47 47 47 47 46 47 47 47 48 49 49 49 49 50 50 50 50 49 47 47 47 47 47 47 47 48 48 47 47 47 47 47 47 47 48 48 48 49 49
91 92 94 95 96 96 96 97 96 96 96 96 94 93 91 89 87 85 83 81 80 80 80 80 78 77 76 74 72 71 70 69 68 67 65 63 61 59 58 57 56 56 55 54 53 53 51 51 50 50 50 50 50 50 50 50 50 51 51 52 52 52 53 53 53 53 51 50 50 50 49 49 49 50 50 49 49 49 50 49 49 49 50 50 51 51 52
89 90 92 94 95 97 98 98 98 97 97 97 96 95 93 91 89 88 86 84 83 81 81 81 80 79 78 77 75 74 73 71 70 69 68 66 64 62 61 60 59 59 58 58 57 56 55 54 53 53 53 52 52 53 53 53 54 54 54 55 55 55 56 56 56 56 55 54 54 53 52 52 52 52 52 52 51 52 52 52 52 51 51 52 53 53 54
86 87 90 92 94 96 98 99 99 99 99 98 97 96 95 93 92 91 89 87 86 84 83 82 82 81 80 79 78 76 75 73 72 71 70 69 67 66 64 63 62 62 61 61 60 59 58 58 57 56 56 55 55 56 56 56 57 57 58 58 58 59 59 58 58 58 57 57 57 56 56 56 55 54 55 55 54 54 54 55 55 54 54 55 56 56 56
85 86 89 92 95 97 100 101 100 100 99 98 98 97 96 95 94 93 91 90 88 87 86 85 84 84 83 82 81 79 77 76 74 73 72 71 70 68 67 66 65 64 64 64 63 63 62 61 61 60 60 59 59 59 59 59 59 60 60 61 61 61 61 61 60 60 60 60 60 59 59 59 58 58 58 57 57 57 57 58 58 58 58 58 58 59 58
85 86 89 92 94 96 99 100 99 99 99 99 98 98 97 96 95 95 93 92 90 89 88 88 88 87 87 86 85 83 80 78 77 75 74 73 72 71 70 69 68 67 67 67 66 65 65 64 64 64 63 63 63 63 62 62 62 63 63 63 63 63 64 63 63 63 63 63 62 62 62 62 62 61 61 61 61 60 60 61 61 61 61 61 60 62 60
87 87 88 90 91 94 96 98 99 100 100 100 99 98 97 97 96 96 95 94 93 91 90 90 90 90 90 89 88 87 84 81 79 78 76 75 74 73 73 72 71 70 70 69 69 68 67 67 67 66 66 66 66 66 66 66 66 65 66 66 65 66 66 66 66 66 66 66 66 66 66 65 65 64 64 64 65 64 64 65 65 64 65 64 63 65 62
89 88 89 89 89 92 95 96 98 99 99 99 99 99 98 97 97 97 97 96 95 94 92 92 92 92 91 90 90 89 87 85 83 80 79 77 76 75 75 74 74 73 72 72 71 71 70 69 69 69 69 69 69 69 69 70 69 69 69 69 68 68 68 68 69 69 69 70 70 69 69 68 68 68 67 67 68 68 68 69 68 68 67 66 66 67 65
90 90 89 88 87 89 92 94 94 95 97 99 100 100 99 98 98 97 97 97 97 96 94 93 92 92 92 91 91 90 89 88 86 84 82 80 78 77 76 75 75 75 75 74 74 73 73 72 71 71 71 71 71 71 72 72 72 72 72 72 72 71 71 71 72 72 72 72 72 71 72 72 71 71 71 70 71 72 72 73 73 72 71 70 68 68 65
92 91 90 87 86 87 89 90 91 93 96 98 100 100 100 99 99 98 98 98 98 97 96 94 93 92 92 92 91 91 91 91 89 87 85 83 81 79 78 77 77 77 76 76 76 76 75 75 74 74 74 73 73 73 73 74 74 74 75 75 74 74 74 74 74 75 74 74 74 74 74 74 74 74 74 74 74 75 76 77 77 76 76 74 71 69 66
95 94 92 88 87 88 89 89 90 93 95 97 98 100 100 100 100 99 100 99 99 98 97 96 94 93 93 93 92 92 92 91 91 89 88 86 84 82 81 80 79 79 79 79 78 78 78 78 77 77 76 76 75 75 75 75 76 76 77 77 77 77 77 77 77 77 76 76 76 76 76 77 77 76 76 76 77 77 78 79 81 80 80 78 74 71 67
98 97 94 92 91 91 91 91 92 93 93 94 96 98 99 100 100 100 100 100 100 99 99 98 97 96 95 94 93 93 92 92 91 91 90 88 87 85 84 82 82 81 81 81 80 80 80 80 79 79 79 78 78 77 77 77 78 78 79 79 80 80 80 79 79 79 79 79 79 78 78 79 79 78 78 77 75 74 72 72 73 75 78 79 78 76 70
100 99 97 95 95 94 93 92 92 91 91 92 93 95 97 99 100 101 101 101 101 100 99 99 98 98 98 96 95 94 93 93 92 92 92 91 90 89 87 86 84 84 83 83 82 82 82 82 81 81 81 80 79 79 79 79 80 80 81 82 82 82 82 82 82 82 82 81 81 80 80 79 78 78 76 73 70 68 64 61 60 62 66 70 74 77 75
100 101 99 98 96 95 93 92 91 90 90 90 90 92 95 97 99 100 101 101 101 100 99 99 99 99 99 98 97 96 95 94 94 93 93 93 92 91 90 89 88 86 85 85 84 84 83 83 82 82 82 82 81 81 81 81 82 82 83 83 84 84 84 83 83 82 81 80 80 79 78 76 75 73 71 68 67 65 62 60 60 61 62 64 67 71 73
98 99 99 98 97 95 94 93 92 91 90 88 88 90 92 94 97 99 100 101 101 101 100 99 98 99 99 99 98 97 96 95 95 94 94 94 93 92 91 90 89 88 87 86 86 85 84 84 83 83 84 84 84 83 83 83 84 84 85 85 85 84 83 82 80 78 77 76 76 75 73 72 70 69 67 66 66 66 66 66 66 66 66 66 67 66 66
94 95 95 96 96 95 94 93 93 92 91 89 89 90 91 92 95 97 98 100 101 101 101 100 99 99 99 98 98 97 96 96 95 94 94 93 92 92 91 90 89 88 87 86 86 85 84 83 83 84 84 85 84 84 84 84 85 85 86 86 86 85 84 83 81 79 78 76 74 72 71 69 68 67 67 67 68 68 70 70 70 68 67 67 65 61 56
88 91 92 93 94 95 95 94 93 93 92 92 92 92 92 92 93 94 95 97 99 100 101 101 100 100 99 99 99 99 98 96 95 94 94 93 91 91 91 90 89 88 86 85 85 84 83 83 83 84 84 84 84 84 84 85 85 85 85 86 86 87 87 86 84 83 81 78 75 72 70 69 69 68 69 69 69 71 73 73 71 68 65 62 59 53 48
75 82 87 90 93 95 96 96 96 96 96 96 95 95 94 93 92 92 92 94 96 98 99 100 100 100 101 101 101 100 99 98 97 95 95 93 92 91 91 90 89 88 86 86 85 84 83 83 84 84 83 82 82 82 83 83 83 84 85 86 87 87 88 87 85 83 81 78 75 74 73 73 72 71 71 71 72 73 74 73 70 65 61 58 54 50 46
62 69 77 83 89 94 98 99 100 100 99 98 98 97 95 94 92 92 92 93 93 94 96 97 98 100 101 101 101 100 99 98 98 97 96 94 93 91 91 90 89 87 87 86 85 84 82 82 82 82 81 80 79 79 79 80 82 83 85 85 85 86 86 86 85 83 81 78 77 77 77 76 75 74 74 74 75 74 72 69 67 64 61 57 54 52 48
51 57 65 73 82 90 96 100 101 102 101 100 98 97 96 95 94 94 94 93 92 92 93 94 95 97 98 99 100 100 99 99 98 97 96 94 93 91 90 89 88 87 86 85 84 83 80 78 77 78 77 77 78 79 79 79 80 81 83 84 84 85 86 87 87 85 83 81 80 80 79 79 77 77 76 76 74 72 69 67 65 64 62 59 57 54 51
45 50 56 63 72 81 90 96 100 102 103 101 100 98 97 96 96 95 94 93 92 92 92 93 93 94 96 97 98 98 99 99 98 97 95 94 93 91 90 89 87 86 85 85 84 83 81 78 76 77 76 76 76 78 79 79 80 82 83 84 85 86 87 88 88 87 86 84 84 83 83 82 80 78 76 74 72 70 68 67 67 65 63 62 60 57 53
41 47 52 58 64 72 81 88 95 100 102 102 102 100 98 96 96 95 95 95 94 94 93 93 93 92 93 94 94 95 96 97 98 97 95 94 93 92 91 89 87 86 85 84 84 84 83 81 79 79 78 77 76 76 78 80 83 86 87 87 88 88 88 88 88 87 87 87 87 86 86 85 82 79 76 73 71 70 69 69 68 67 65 64 63 59 54
36 41 47 53 58 64 71 77 84 90 96 100 102 102 101 99 98 98 98 98 97 96 96 95 95 94 93 92 92 92 93 95 96 96 95 94 94 93 91 89 87 85 83 81 80 80 80 81 81 82 83 83 82 81 82 83 85 88 88 89 89 89 89 89 89 89 89 89 88 88 87 86 85 83 79 76 72 70 69 70 70 69 67 66 65 63 57
31 35 40 45 51 57 63 69 75 81 88 93 98 100 101 101 100 100 100 100 99 99 99 99 97 95 93 93 92 92 93 94 94 95 94 94 93 93 92 90 88 86 84 81 80 79 79 80 81 82 84 85 86 85 85 86 87 88 89 90 90 91 92 92 92 91 91 90 90 89 89 88 87 85 83 81 77 73 72 72 71 71 70 70 69 67 61
26 29 34 38 44 49 54 59 65 71 77 83 88 93 97 99 100 100 100 100 100 100 101 100 99 97 96 95 95 95 95 95 94 94 94 94 94 93 92 91 89 88 86 85 84 82 82 82 82 82 83 85 86 86 87 87 88 90 91 91 92 94 94 94 94 94 93 93 92 92 91 90 89 88 86 84 82 78 75 74 74 74 74 74 74 71 65
24 26 28 31 36 42 48 53 57 60 65 70 75 81 87 91 93 96 98 99 99 100 101 101 100 99 99 98 98 98 98 98 97 96 96 95 95 95 94 93 92 90 88 87 86 85 83 82 82 82 83 84 85 87 88 90 92 93 93 94 95 96 96 96 96 96 96 96 96 95 94 93 92 91 90 87 84 81 78 77 77 77 78 78 78 74 68
23 24 25 26 28 33 39 45 49 52 54 58 63 68 74 79 82 86 90 91 93 97 100 101 101 101 102 102 101 101 101 101 101 100 99 99 99 99 98 97 96 94 91 89 88 88 87 85 84 83 83 84 86 88 91 94 95 96 95 95 96 97 98 98 98 98 99 99 99 99 99 97 96 94 91 88 85 82 79 78 78 78 78 78 77 74 70
25 25 25 25 25 27 31 36 41 44 47 49 52 57 62 66 69 73 77 80 82 87 92 95 97 99 101 103 103 103 104 104 103 103 102 102 102 102 101 100 99 98 97 95 94 93 92 92 90 87 85 86 87 90 94 96 98 98 97 96 96 98 99 100 100 101 101 101 101 101 101 100 98 96 92 89 85 82 80 78 76 73 71 70 69 68 67
28 26 24 24 25 26 27 30 35 39 43 46 49 50 52 55 57 61 65 70 74 77 80 84 88 93 97 100 101 103 104 104 104 105 105 105 105 105 104 103 103 102 101 100 99 98 97 97 97 95 93 92 92 95 98 100 101 101 100 98 98 100 102 103 103 103 103 102 102 101 101 100 99 97 94 90 85 82 79 76 71 66 63 62 62 62 62
32 31 30 29 28 26 24 25 29 33 36 38 41 44 47 49 50 52 55 60 64 67 69 72 76 81 86 90 92 95 97 100 102 103 104 105 105 106 106 105 105 105 105 104 103 102 102 101 100 99 97 96 97 99 102 104 105 105 104 103 101 101 102 102 102 103 102 101 101 101 101 100 99 97 94 89 85 82 79 73 67 63 61 60 59 58 58
31 33 34 33 30 26 23 22 24 27 29 29 32 36 41 44 47 49 50 52 55 57 60 62 65 70 75 78 80 82 85 88 91 95 97 99 101 103 103 103 103 104 104 104 103 102 101 100 98 97 96 96 98 100 102 105 107 108 107 106 104 103 103 103 102 102 102 101 101 101 101 99 96 93 91 88 85 81 76 70 64 61 61 60 58 57 56
24 27 30 31 30 28 25 24 25 27 29 31 32 35 38 41 43 46 49 51 52 54 56 58 60 64 67 70 73 75 77 79 80 84 86 88 90 92 94 95 97 99 100 100 99 98 97 96 96 96 96 96 98 101 103 106 108 109 109 108 106 105 105 104 103 103 103 103 102 101 100 96 92 89 89 87 83 78 72 68 64 62 62 61 60 59 57
21 22 25 28 30 31 29 29 29 31 34 36 38 40 41 42 43 45 49 53 55 57 58 60 60 62 64 66 67 71 74 76 76 78 79 80 82 82 82 81 84 88 92 94 96 97 97 96 97 97 98 99 100 102 104 106 109 110 110 110 109 108 107 106 106 106 107 106 103 100 98 96 92 90 89 86 81 75 70 67 66 65 64 64 63 62 61
25 25 25 28 32 34 34 34 34 35 38 41 43 44 45 46 47 47 49 53 56 59 61 62 62 64 66 67 67 70 73 75 76 76 75 75 77 78 76 72 71 74 78 82 87 93 96 97 98 99 99 100 101 103 104 106 109 110 110 111 111 110 109 109 109 108 108 106 102 99 98 96 94 91 89 87 82 77 73 70 68 67 67 66 65 64 64
32 31 30 31 33 36 38 39 40 41 43 46 47 48 49 50 51 51 51 53 55 58 61 64 66 67 68 69 70 73 76 78 78 78 77 76 77 78 77 74 72 72 72 74 77 82 87 91 94 97 98 99 101 102 104 106 108 109 110 110 110 110 109 108 107 106 105 103 102 102 101 99 96 92 89 86 83 80 77 74 72 70 69 67 66 65 65
36 35 34 34 34 35 37 39 41 42 42 43 44 46 47 49 50 51 53 55 56 58 61 64 67 69 71 72 74 77 80 82 83 83 83 82 82 82 81 79 78 78 77 76 75 76 78 81 84 87 90 93 95 98 100 103 106 107 109 109 109 108 107 106 105 105 104 103 103 104 103 101 97 92 88 86 84 82 80 78 77 75 72 71 69 68 67
Wind_Direction
217 215 215 214 214 215 215 212 210 208 206 203 199 196 197 199 200 205 209 214 225 229 219 212 214 213 212 217 218 218 219 218 218 219 220 222 223 223 223 223 224 224 225 226 226 226 226 227 228 229 230 230 232 233 235 237 238 240 241 243 245 245 246 247 248 249 251 253 253 254 255 257 258 260 261 263 265 266 268 269 270 271 273 275 277 279 281
217 216 215 214 213 214 214 212 209 207 204 202 199 197 198 199 199 202 208 211 219 228 223 213 211 211 208 210 214 216 218 219 218 218 219 221 222 223 223 224 225 225 226 227 228 228 228 229 230 230 231 232 232 234 235 236 238 240 241 242 245 247 249 249 250 252 254 256 257 257 258 259 260 262 263 264 266 268 269 270 271 273 275 277 279 280 282
216 216 215 214 213 213 213 212 209 206 204 202 199 198 198 199 199 201 207 210 214 223 225 215 207 207 206 206 209 212 215 217 218 218 219 220 221 222 223 225 226 227 227 227 228 229 229 230 231 232 234 235 236 237 238 238 239 240 241 243 244 246 249 250 251 253 254 256 258 258 259 260 261 263 265 266 268 269 270 271 273 275 277 278 280 281 283
215 215 215 214 212 212 212 211 208 206 204 202 200 199 198 198 199 202 206 209 211 219 224 218 207 206 206 205 207 209 210 212 214 217 219 221 223 224 225 226 227 228 229 229 230 230 231 232 233 234 236 238 239 240 241 242 243 244 245 246 247 248 250 252 254 254 255 256 258 259 259 260 261 263 266 267 269 270 271 273 274 276 276 277 279 281 283
214 214 215 214 212 212 211 210 208 206 204 202 201 200 199 198 199 202 206 208 210 216 223 220 211 206 207 207 208 208 208 210 211 213 217 220 222 224 226 227 228 229 230 231 232 233 234 234 235 236 238 239 240 241 242 244 245 247 248 249 250 251 252 254 255 256 257 258 259 260 261 262 263 265 266 268 269 270 271 273 274 275 276 277 279 280 282
214 214 214 214 213 212 211 209 208 206 205 203 201 200 200 198 198 201 205 208 211 215 222 223 216 209 207 207 209 210 209 209 209 210 212 215 218 221 224 226 228 229 230 231 232 234 235 236 237 238 240 241 241 242 243 244 245 247 248 250 251 253 254 256 257 258 260 261 262 263 263 264 265 266 267 268 269 270 271 272 274 275 277 278 279 280 281
215 213 213 214 213 212 210 208 207 207 206 204 202 201 201 200 199 201 206 209 210 214 220 223 221 216 209 205 206 209 209 209 209 209 210 211 214 217 219 222 226 228 229 231 232 233 235 237 238 240 241 243 244 245 246 247 247 248 249 251 252 253 255 256 257 259 260 261 263 264 265 266 267 267 268 269 269 271 272 273 274 275 276 277 278 279 280
215 213 213 213 213 212 210 208 207 207 206 205 203 203 203 201 200 201 206 209 210 214 219 221 223 222 215 206 206 208 208 210 211 212 213 213 214 215 217 219 222 226 229 231 232 234 236 237 238 240 242 244 245 247 248 249 250 251 252 253 253 254 255 256 257 258 260 261 262 264 265 266 266 267 267 268 269 270 272 273 274 274 274 275 277 278 279
216 214 213 213 213 212 210 209 208 208 207 205 205 205 204 202 202 203 206 209 210 214 219 220 222 225 221 215 215 214 210 209 210 213 215 216 216 217 218 219 221 224 227 230 232 235 237 238 240 241 243 244 246 247 249 250 252 253 254 255 256 257 258 258 259 260 261 263 264 265 266 266 266 267 267 268 270 271 272 273 273 274 274 275 276 277 278
215 215 213 213 213 212 211 209 208 208 207 206 206 207 205 204 205 204 206 208 209 213 218 219 221 224 224 224 224 220 213 210 209 211 215 219 220 221 222 222 223 225 227 230 232 234 236 238 240 242 244 245 246 247 248 250 252 253 255 256 257 258 260 262 263 264 265 266 266 266 266 267 268 269 270 271 271 272 273 274 274 275 276 276 277 277 278
215 215 214 213 212 212 212 210 208 208 208 206 207 208 206 206 207 206 206 208 209 211 216 219 220 222 224 226 228 224 218 216 215 213 214 218 222 225 226 227 227 229 231 233 235 237 238 240 242 243 244 245 246 246 247 248 250 252 253 254 256 258 261 262 263 263 263 264 264 265 265 267 268 270 271 272 273 274 275 276 277 277 278 279 279 279 280
215 215 214 214 213 213 212 210 208 208 209 207 207 208 207 207 208 208 208 208 209 210 214 218 219 221 222 226 229 227 224 223 222 220 218 219 222 225 229 231 232 234 236 239 241 243 244 245 246 246 247 247 249 250 251 252 252 252 253 254 256 257 257 258 258 259 260 261 262 264 265 267 268 270 271 272 274 275 276 276 278 279 280 281 282 282 282
214 214 214 214 214 214 212 211 210 209 209 209 208 208 208 208 209 210 209 209 210 211 214 217 219 220 221 223 227 228 227 227 226 226 225 224 223 225 228 231 234 237 239 241 242 244 246 247 248 249 250 251 253 255 257 257 257 257 257 257 257 257 257 258 258 259 260 260 262 264 266 267 269 270 271 272 273 274 275 276 277 277 278 279 280 282 282
215 214 213 214 215 214 212 211 210 210 210 210 209 208 208 208 210 211 211 211 211 212 215 217 219 220 221 222 225 227 229 229 229 229 229 228 228 228 228 231 234 237 240 242 243 244 246 247 248 249 251 253 255 257 258 259 260 260 260 260 261 261 262 262 263 263 264 263 264 266 268 270 270 271 273 274 274 274 274 275 277 277 278 278 279 280 282
215 214 213 213 214 214 213 212 211 211 212 211 210 210 209 209 210 212 212 212 212 214 216 217 219 221 222 222 224 227 229 230 231 231 231 231 231 231 232 233 235 238 241 243 245 246 246 247 248 249 250 252 254 256 258 259 260 261 262 263 264 265 266 266 267 268 269 269 269 270 271 272 273 274 275 276 276 276 276 277 277 277 278 279 279 281 283
215 214 213 213 214 214 213 213 212 213 213 213 212 212 211 210 211 212 214 214 214 215 217 218 219 221 223 224 225 226 228 231 232 233 233 233 234 234 234 235 237 239 241 243 245 247 248 249 250 250 251 252 253 255 257 259 260 261 262 263 265 266 267 268 269 269 270 272 272 273 273 274 276 277 277 278 279 279 279 280 280 280 280 281 282 284 285
215 214 214 214 214 214 214 214 214 214 215 214 213 213 213 212 211 213 214 215 216 216 218 219 220 222 224 226 227 228 229 231 233 234 235 235 235 236 237 237 238 240 241 243 245 246 248 250 251 251 251 252 253 254 255 257 259 261 262 264 265 266 268 269 270 270 270 271 271 273 274 275 276 277 278 279 280 281 282 283 283 284 284 285 286 286 287
215 214 214 214 214 214 214 214 214 215 215 216 215 214 214 214 213 214 215 216 217 218 219 221 222 223 224 226 228 229 230 232 233 235 235 236 236 237 239 240 241 242 243 243 244 246 247 249 250 251 252 253 254 254 255 257 259 261 262 263 264 265 266 268 269 269 269 270 271 272 273 274 275 276 278 279 280 281 282 282 283 284 284 285 286 286 287
214 214 214 214 214 214 214 215 215 215 216 216 216 216 215 215 215 216 217 217 218 219 220 222 223 224 225 227 228 230 231 232 233 234 235 236 237 237 239 241 243 244 245 245 246 246 247 249 250 251 252 253 254 256 257 259 260 261 262 263 263 264 265 265 267 268 269 270 271 271 272 274 275 276 277 277 278 279 280 280 281 282 283 284 285 285 286
214 214 214 214 214 215 215 215 215 215 216 217 217 216 216 216 216 217 218 219 220 220 222 223 225 226 227 228 229 230 231 232 234 234 235 236 237 238 239 240 242 244 246 247 248 248 249 250 250 251 252 253 254 256 258 259 261 261 262 263 263 263 264 265 266 267 268 269 270 271 273 274 275 276 277 277 278 278 278 278 279 280 281 282 283 284 285
214 213 214 214 214 214 215 216 215 215 216 217 217 217 217 217 217 218 220 221 221 222 223 224 226 227 228 228 229 230 231 232 233 235 235 236 237 238 239 240 241 243 245 247 249 250 251 251 252 252 253 254 255 256 258 259 261 262 263 264 265 266 266 267 267 268 269 270 270 271 273 274 275 277 277 278 279 278 278 278 278 279 280 281 282 283 286
214 214 214 214 214 214 216 216 216 216 216 217 217 218 218 218 218 219 220 221 223 223 224 225 227 229 230 230 230 230 231 232 233 235 236 237 237 239 240 240 241 243 244 246 248 250 251 252 253 254 255 256 257 258 259 259 261 262 263 265 266 267 268 269 269 270 271 271 271 272 273 274 276 278 279 279 280 280 280 279 279 279 279 280 281 282 286
214 214 214 214 213 214 215 216 216 216 216 217 218 218 218 218 219 220 220 221 223 224 225 226 227 229 231 232 232 231 231 232 233 235 236 237 238 239 240 241 242 243 245 246 247 249 250 251 253 254 255 257 258 259 260 261 261 262 263 264 265 266 267 268 269 270 271 272 273 273 274 275 277 278 280 280 281 281 281 280 280 279 280 280 281 281 285
213 213 213 213 213 214 215 216 216 216 216 217 218 218 219 219 219 220 221 222 223 224 225 227 228 230 231 233 234 234 233 233 233 234 236 237 238 239 240 242 243 244 245 246 247 249 250 251 252 254 255 257 258 259 261 262 262 263 264 264 265 265 266 267 269 270 271 272 273 275 276 277 278 279 279 280 280 281 280 280 280 280 279 280 280 280 283
213 213 213 213 213 214 215 216 216 216 217 218 218 219 219 219 220 220 221 222 223 224 225 227 228 230 232 233 235 235 235 234 234 234 235 237 238 239 240 241 243 244 245 247 248 249 250 251 252 254 255 256 258 259 261 262 263 264 264 265 265 266 266 267 268 269 271 272 274 275 276 277 278 279 279 280 280 280 280 279 279 279 279 279 279 279 281
213 214 213 212 212 214 216 216 216 216 217 218 218 219 219 220 220 221 221 222 223 224 225 226 228 230 232 233 235 236 237 237 236 235 235 236 237 239 240 241 242 244 245 246 248 249 250 251 252 254 255 257 258 259 261 262 263 264 265 265 265 266 266 267 268 269 270 272 273 275 276 276 277 278 279 280 280 280 280 279 278 278 277 277 277 277 279
213 214 213 212 212 214 215 216 216 216 217 217 218 219 219 220 221 221 222 223 223 224 225 226 228 229 231 233 235 236 237 238 238 238 237 237 237 238 240 241 242 243 244 246 247 248 250 251 253 254 255 257 258 259 260 261 262 263 264 265 265 266 267 268 268 270 271 272 273 274 275 276 277 278 279 280 280 280 280 279 278 277 276 275 275 275 276
213 213 212 211 212 213 213 214 215 216 216 216 218 219 219 220 221 222 223 224 224 224 225 226 227 229 231 232 234 236 237 239 240 240 240 239 239 239 240 241 242 243 244 246 247 248 250 251 253 254 255 256 257 258 259 260 261 263 264 265 266 267 268 269 269 270 271 272 272 274 275 276 278 278 278 279 280 280 282 282 281 279 277 275 274 274 273
214 214 212 212 212 212 212 213 215 215 215 216 217 218 219 220 221 222 223 224 225 225 225 226 228 229 231 232 233 235 237 238 239 240 241 242 242 241 241 241 242 243 244 246 247 248 250 251 252 254 255 256 257 258 259 260 261 262 263 265 266 267 268 269 270 270 271 272 273 274 275 276 277 277 277 278 279 281 283 285 286 286 284 281 277 274 272
216 215 213 212 212 212 212 213 214 215 215 215 216 218 219 220 220 221 222 224 225 226 226 226 228 230 231 232 233 234 236 237 239 240 241 242 243 244 244 243 244 244 245 246 247 248 250 251 252 254 255 256 257 258 259 260 261 262 263 265 266 267 268 269 270 270 271 272 272 273 273 274 275 275 276 277 278 279 281 284 287 289 288 286 283 277 273
218 217 215 214 213 212 212 213 214 215 215 215 216 218 219 219 220 221 222 223 225 226 227 227 228 229 231 232 233 234 235 237 238 239 241 242 243 244 245 246 246 246 247 247 248 249 250 251 253 254 255 256 257 258 260 261 262 263 264 265 266 267 268 269 269 270 271 272 272 272 272 272 273 273 274 277 278 278 279 283 287 289 288 288 285 279 273
219 219 218 216 215 214 213 213 214 214 215 215 216 218 219 219 220 221 221 222 224 226 227 227 228 229 231 233 234 234 235 236 238 239 240 242 243 244 245 246 247 248 248 249 250 251 252 253 255 256 257 258 259 260 262 263 263 264 265 266 266 267 268 268 269 271 272 273 273 273 272 272 272 273 275 277 279 279 279 283 286 287 288 289 286 279 274
218 219 218 218 217 216 215 215 215 215 215 215 216 217 218 219 220 221 221 222 223 225 226 227 228 229 231 232 234 235 235 236 237 239 240 241 242 244 245 247 247 248 249 250 252 253 255 256 258 259 260 261 262 263 264 264 264 265 265 265 265 266 267 268 270 271 272 273 272 271 272 272 273 274 276 278 280 281 281 282 284 284 286 289 287 280 273
216 217 217 217 217 217 216 216 216 216 216 216 216 217 217 218 219 221 221 222 223 224 226 227 228 229 231 232 233 235 236 236 237 238 239 240 242 243 245 247 248 249 250 251 253 254 256 258 259 261 261 262 263 263 264 264 264 264 264 264 265 266 267 268 269 270 270 271 270 270 272 274 275 276 277 279 281 282 281 282 282 281 282 285 285 282 275
213 214 215 215 215 216 216 217 217 217 217 217 217 218 218 218 219 220 221 222 222 224 225 227 228 229 230 232 233 234 236 237 238 239 240 240 241 243 244 246 248 249 251 252 253 254 255 257 259 260 260 260 260 260 261 262 263 264 264 264 265 266 266 267 267 267 268 268 269 270 273 274 275 276 277 279 282 282 281 280 280 278 277 279 282 283 278
208 209 211 212 213 215 215 216 217 218 218 218 218 219 219 219 219 220 221 222 222 223 225 226 228 229 230 231 233 234 236 236 237 238 239 240 241 242 244 245 247 248 250 251 252 253 253 254 255 257 257 258 258 259 260 261 262 262 263 264 264 265 265 266 267 268 268 269 269 271 272 273 274 276 277 279 282 282 281 280 279 277 275 275 277 280 280
201 202 204 206 209 212 214 215 217 218 218 219 219 220 220 220 220 221 221 222 223 224 225 226 227 228 230 231 232 234 236 237 238 238 239 240 241 241 243 244 245 246 248 248 249 250 250 250 252 253 255 256 258 258 259 259 259 259 260 262 263 265 266 268 269 271 271 272 272 272 274 275 276 277 278 279 281 282 281 281 281 279 275 273 274 275 277
195 197 198 201 204 208 211 213 216 218 218 219 219 220 221 221 221 222 222 223 223 224 225 226 226 227 229 230 231 233 235 237 238 238 239 240 240 241 242 243 244 245 246 247 249 250 250 249 249 250 251 252 253 255 256 257 258 259 261 262 263 265 267 268 270 271 273 274 275 275 277 278 279 279 280 280 280 280 281 281 281 280 277 274 272 271 272
191 192 195 198 201 204 207 210 213 216 218 219 219 220 221 221 222 222 222 223 223 224 225 226 226 227 228 229 231 232 234 235 237 238 239 239 240 240 241 241 242 243 245 246 248 248 248 247 247 247 248 249 250 252 253 255 257 260 262 263 264 266 268 269 270 272 273 274 276 277 278 280 280 281 282 282 281 280 280 280 281 280 278 275 272 270 268
185 188 191 194 198 201 204 206 209 213 216 218 219 220 221 222 223 223 223 223 224 224 225 226 226 227 227 229 230 231 233 234 236 237 238 239 240 240 240 240 240 240 241 242 243 244 245 245 245 245 247 248 250 251 253 255 257 259 261 263 264 266 268 270 271 272 273 275 276 277 277 279 280 280 282 283 283 281 279 279 279 279 278 275 273 270 266
172 180 185 190 194 197 200 204 207 210 213 216 217 219 220 222 223 224 225 225 225 226 227 227 227 227 228 229 229 231 232 233 235 236 237 238 239 240 240 240 240 240 240 241 242 244 246 247 246 246 246 248 249 251 252 254 256 258 260 262 264 266 268 269 270 272 273 274 276 276 277 278 279 280 281 283 283 281 279 278 278 278 277 275 273 270 266
158 168 175 182 189 193 196 200 203 206 210 213 216 218 219 221 223 224 226 226 227 228 228 229 229 229 229 229 230 231 232 233 234 235 236 237 238 239 240 241 241 240 241 242 243 244 244 245 246 247 247 248 249 251 253 255 256 258 259 261 263 265 266 268 270 272 273 274 276 276 277 278 279 280 281 282 283 281 280 279 279 278 277 275 273 271 268
151 160 165 170 179 187 193 197 200 203 206 209 212 215 217 219 220 223 225 226 228 229 230 230 230 230 230 231 231 232 233 234 234 235 236 237 238 239 240 240 241 241 241 242 243 243 242 242 242 244 246 248 250 252 253 255 257 258 259 260 261 263 265 267 269 271 273 274 275 277 278 279 280 280 281 283 283 282 281 281 280 279 277 275 274 272 270
151 159 163 166 171 177 185 191 195 198 201 204 207 211 214 216 217 220 222 223 225 227 229 230 230 231 232 232 232 233 233 234 235 236 237 238 239 239 240 241 241 242 242 242 243 244 244 243 243 243 245 247 250 252 253 254 255 257 258 259 260 262 265 267 268 270 271 272 274 276 277 279 280 281 282 283 283 283 283 283 282 279 276 273 272 271 269
152 159 166 170 174 177 182 187 191 194 198 201 203 206 209 211 213 215 218 221 222 225 228 229 230 231 232 232 233 233 235 236 237 237 238 239 240 240 241 241 242 242 242 243 243 244 244 245 246 246 247 248 250 251 253 254 255 256 258 259 260 262 265 267 268 269 270 272 273 275 277 279 280 282 283 284 284 284 285 284 281 276 272 271 270 269 267
158 163 169 176 183 188 189 188 189 191 196 201 204 206 207 209 210 212 215 218 221 223 225 227 229 231 233 233 234 234 235 236 237 238 239 240 241 242 242 242 243 243 243 244 244 245 246 246 248 249 250 251 251 251 252 253 255 256 258 259 260 262 264 266 268 269 270 271 273 275 277 279 280 282 283 284 285 286 286 283 276 271 269 269 268 267 265
168 172 176 181 188 194 195 193 191 190 192 198 205 208 209 211 212 212 212 215 218 219 220 222 226 229 231 232 232 233 234 235 236 238 239 240 241 242 243 243 244 244 245 245 245 246 247 248 248 249 249 249 250 251 252 253 254 255 256 258 259 261 263 265 266 268 269 270 272 274 276 278 279 280 282 284 285 286 283 278 271 267 266 266 266 265 264
174 180 184 188 192 195 196 196 195 194 194 199 205 210 212 213 215 215 214 214 215 217 217 219 222 226 229 230 230 230 230 231 233 236 238 239 240 242 244 245 245 245 245 245 245 245 246 246 247 247 247 247 248 249 250 251 253 254 255 257 259 260 262 263 265 266 268 269 271 273 274 275 276 278 281 283 284 282 278 272 267 265 264 264 264 264 263
182 183 187 191 192 194 197 200 201 202 203 205 209 213 216 217 218 218 218 217 216 216 216 217 220 223 226 227 228 228 229 229 232 235 237 238 239 240 242 244 246 247 247 246 245 245 244 244 245 245 246 246 247 248 249 250 252 253 255 257 258 259 261 262 264 266 267 269 270 270 271 272 274 276 278 280 280 277 272 267 264 263 263 263 264 263 262
199 195 195 195 195 195 197 201 204 208 212 214 215 218 220 222 222 222 222 222 221 220 220 219 220 223 225 225 224 224 226 228 231 233 234 235 235 237 238 239 242 245 248 248 248 247 246 245 245 245 246 246 247 248 249 251 252 254 255 257 258 259 260 262 263 264 266 267 268 269 269 271 273 274 275 276 275 272 269 266 264 263 263 263 263 263 263
208 205 204 203 202 202 202 203 206 211 216 218 220 221 224 227 227 227 226 226 226 225 224 223 222 223 224 225 224 223 224 226 229 231 231 231 232 234 235 236 237 239 242 244 247 249 249 248 247 246 247 248 248 250 251 252 253 255 256 257 259 260 261 262 263 263 264 265 266 268 269 270 271 272 272 272 270 268 266 265 264 264 263 263 264 264 263
212 211 210 211 212 211 211 211 213 216 219 221 223 224 227 229 231 232 231 230 229 229 228 227 226 225 225 225 225 224 225 226 229 231 231 230 230 232 234 234 235 237 239 240 242 246 249 251 251 250 250 250 250 251 252 253 254 255 256 257 259 260 261 262 263 263 264 265 266 268 268 269 269 269 269 269 267 265 263 262 262 262 263 263 264 264 264
Height
10744 10752 10760 10767 10774 10780 10786 10793 10799 10804 10809 10814 10820 10824 10827 10830 10835 10836 10835 10835 10835 10836 10841 10846 10847 10850 10854 10856 10859 10862 10864 10868 10871 10876 10881 10885 10889 10893 10896 10898 10900 10903 10906 10908 10910 10913 10916 10919 10920 10922 10924 10925 10927 10929 10931 10934 10936 10938 10940 10941 10942 10943 10944 10944 10945 10946 10949 10950 10952 10954 10955 10955 10955 10956 10956 10956 10957 10957 10957 10958 10957 10957 10957 10957 10957 10956 10956
10737 10744 10751 10759 10766 10772 10778 10785 10791 10797 10803 10808 10812 10817 10822 10825 10830 10831 10831 10832 10832 10832 10837 10842 10844 10847 10851 10853 10856 10858 10860 10864 10868 10872 10875 10879 10882 10886 10889 10892 10895 10898 10901 10903 10906 10910 10912 10914 10915 10916 10918 10920 10922 10924 10927 10930 10931 10933 10935 10936 10936 10937 10938 10938 10940 10943 10944 10945 10947 10949 10950 10950 10951 10951 10951 10952 10952 10953 10953 10953 10953 10953 10953 10953 10952 10952 10952
10727 10734 10742 10750 10757 10764 10771 10777 10785 10791 10796 10801 10806 10812 10817 10821 10825 10826 10825 10828 10829 10828 10831 10836 10840 10844 10846 10849 10852 10854 10857 10861 10864 10867 10870 10873 10876 10880 10883 10886 10889 10892 10896 10899 10902 10905 10907 10908 10910 10912 10913 10916 10918 10920 10923 10925 10926 10928 10930 10931 10932 10932 10931 10932 10936 10938 10939 10940 10941 10943 10945 10946 10946 10946 10947 10947 10948 10948 10947 10948 10948 10948 10948 10947 10947 10947 10946
10717 10724 10732 10741 10749 10756 10763 10770 10778 10784 10790 10795 10801 10806 10810 10815 10819 10820 10821 10825 10825 10823 10826 10832 10837 10840 10843 10845 10847 10850 10854 10857 10860 10863 10866 10868 10872 10875 10878 10881 10884 10887 10890 10893 10896 10899 10901 10903 10905 10907 10909 10912 10915 10916 10918 10920 10922 10924 10926 10926 10927 10927 10927 10929 10931 10932 10933 10935 10936 10937 10939 10940 10941 10942 10942 10942 10942 10942 10942 10942 10942 10942 10942 10942 10942 10942 10941
10708 10716 10724 10733 10742 10748 10755 10763 10771 10777 10782 10788 10793 10798 10803 10809 10813 10816 10819 10821 10819 10818 10822 10829 10834 10838 10840 10841 10843 10847 10851 10854 10857 10860 10862 10865 10868 10870 10873 10876 10879 10882 10884 10887 10890 10892 10895 10897 10900 10902 10905 10907 10909 10910 10913 10915 10917 10919 10920 10920 10921 10922 10923 10924 10925 10926 10928 10930 10930 10931 10933 10935 10936 10937 10937 10936 10936 10936 10936 10936 10937 10936 10936 10937 10937 10937 10936
10699 10709 10719 10726 10733 10740 10747 10756 10763 10769 10775 10781 10786 10793 10799 10804 10808 10812 10813 10814 10814 10815 10819 10824 10829 10832 10835 10838 10842 10846 10849 10852 10855 10857 10859 10862 10864 10866 10869 10871 10873 10876 10878 10881 10883 10886 10888 10891 10894 10896 10898 10899 10902 10905 10907 10909 10911 10913 10913 10914 10915 10917 10918 10919 10919 10920 10922 10923 10924 10926 10927 10929 10930 10931 10931 10930 10929 10930 10930 10931 10931 10931 10931 10931 10931 10931 10931
10691 10702 10711 10716 10722 10731 10740 10749 10757 10763 10769 10775 10782 10788 10792 10796 10801 10805 10806 10808 10811 10812 10813 10818 10824 10826 10831 10837 10840 10843 10846 10848 10851 10853 10855 10857 10860 10862 10864 10866 10868 10870 10872 10875 10877 10880 10882 10885 10888 10890 10892 10893 10897 10900 10901 10903 10905 10906 10907 10909 10910 10911 10913 10913 10914 10915 10916 10917 10918 10920 10921 10923 10924 10924 10924 10923 10923 10923 10924 10925 10926 10926 10926 10925 10924 10924 10925
10682 10693 10700 10706 10714 10724 10734 10743 10750 10755 10761 10768 10774 10779 10783 10789 10795 10799 10801 10804 10807 10806 10806 10813 10819 10821 10826 10832 10836 10838 10841 10843 10846 10848 10851 10853 10856 10857 10859 10861 10863 10865 10867 10870 10872 10875 10878 10880 10882 10884 10887 10889 10892 10894 10895 10897 10898 10899 10901 10902 10904 10905 10907 10908 10909 10910 10911 10912 10913 10914 10915 10917 10917 10916 10917 10917 10917 10917 10918 10919 10920 10920 10919 10919 10918 10918 10918
10672 10683 10691 10699 10708 10718 10728 10736 10742 10747 10753 10761 10766 10771 10777 10784 10789 10793 10796 10799 10802 10801 10802 10807 10813 10816 10821 10826 10829 10831 10835 10839 10842 10844 10847 10849 10851 10853 10855 10857 10859 10862 10864 10866 10869 10871 10874 10875 10877 10880 10882 10885 10886 10888 10889 10890 10891 10893 10895 10896 10897 10899 10900 10901 10903 10904 10905 10906 10907 10908 10909 10908 10908 10908 10909 10910 10910 10911 10911 10912 10912 10912 10912 10912 10913 10912 10911
10663 10673 10681 10691 10701 10711 10718 10724 10731 10738 10745 10753 10759 10764 10771 10778 10782 10787 10790 10793 10796 10796 10797 10801 10807 10811 10815 10818 10820 10823 10829 10835 10839 10841 10843 10845 10847 10850 10852 10854 10856 10859 10861 10863 10866 10868 10870 10872 10874 10876 10878 10879 10881 10883 10884 10885 10886 10888 10889 10889 10891 10892 10893 10895 10897 10898 10899 10900 10900 10900 10899 10899 10899 10900 10901 10903 10903 10904 10904 10904 10904 10904 10904 10905 10905 10904 10904
10653 10663 10674 10685 10694 10699 10704 10713 10723 10730 10737 10744 10751 10756 10763 10770 10774 10779 10782 10786 10789 10791 10792 10795 10799 10805 10810 10811 10812 10818 10824 10829 10833 10837 10840 10842 10844 10846 10848 10850 10853 10855 10857 10860 10862 10864 10866 10868 10870 10872 10873 10875 10876 10877 10879 10880 10881 10882 10882 10884 10886 10887 10889 10890 10891 10890 10892 10893 10892 10891 10891 10892 10893 10894 10895 10896 10897 10897 10897 10897 10897 10897 10897 10896 10896 10896 10896
10645 10656 10667 10676 10682 10686 10695 10707 10716 10722 10729 10736 10743 10748 10755 10761 10765 10770 10774 10778 10782 10785 10787 10789 10793 10799 10804 10805 10808 10814 10818 10821 10826 10831 10835 10837 10840 10842 10843 10846 10848 10851 10853 10855 10857 10860 10862 10864 10866 10868 10869 10871 10872 10873 10874 10875 10875 10876 10877 10880 10882 10882 10883 10883 10883 10884 10885 10886 10885 10885 10885 10887 10888 10888 10889 10890 10891 10891 10891 10891 10891 10890 10890 10889 10888 10887 10888
10635 10646 10656 10664 10670 10677 10688 10698 10707 10715 10722 10728 10734 10739 10746 10752 10757 10761 10767 10772 10776 10779 10781 10784 10787 10793 10798 10801 10804 10807 10810 10814 10820 10825 10828 10832 10834 10837 10839 10841 10843 10846 10848 10850 10853 10855 10857 10859 10861 10863 10864 10866 10867 10868 10869 10869 10869 10870 10872 10874 10875 10875 10876 10877 10877 10878 10879 10880 10880 10880 10881 10882 10883 10883 10883 10884 10885 10885 10884 10885 10885 10884 10884 10883 10882 10880 10879
10626 10637 10646 10653 10659 10666 10678 10688 10698 10707 10713 10717 10723 10730 10737 10744 10749 10755 10761 10766 10770 10773 10776 10779 10782 10787 10791 10795 10798 10801 10804 10808 10813 10817 10821 10825 10828 10831 10834 10836 10839 10841 10843 10845 10848 10850 10851 10854 10856 10857 10859 10860 10861 10862 10863 10863 10863 10864 10866 10867 10868 10869 10870 10871 10871 10872 10873 10874 10876 10876 10876 10876 10877 10877 10877 10878 10879 10878 10878 10878 10879 10878 10877 10876 10875 10874 10872
10615 10625 10633 10640 10646 10656 10669 10681 10690 10697 10702 10708 10716 10723 10730 10737 10742 10748 10754 10759 10763 10767 10770 10773 10777 10780 10784 10788 10792 10796 10799 10802 10806 10810 10814 10818 10821 10825 10828 10831 10834 10836 10838 10840 10842 10844 10846 10848 10850 10852 10853 10854 10855 10856 10856 10856 10857 10859 10860 10861 10862 10863 10863 10864 10865 10866 10867 10868 10869 10870 10870 10870 10871 10871 10871 10871 10872 10871 10871 10872 10872 10871 10870 10869 10868 10867 10866
10602 10612 10622 10631 10639 10652 10665 10675 10683 10689 10694 10701 10709 10716 10722 10730 10735 10741 10747 10751 10756 10760 10763 10766 10770 10774 10778 10782 10786 10790 10793 10797 10800 10803 10807 10811 10814 10818 10821 10825 10828 10830 10833 10835 10837 10838 10840 10842 10843 10845 10847 10848 10849 10850 10850 10850 10851 10852 10853 10854 10855 10856 10856 10858 10859 10860 10861 10862 10863 10863 10864 10864 10864 10864 10864 10864 10865 10864 10864 10864 10864 10864 10863 10861 10861 10860 10859
10595 10606 10618 10627 10638 10650 10660 10666 10673 10679 10685 10692 10700 10706 10713 10720 10726 10732 10738 10744 10749 10754 10756 10759 10764 10768 10771 10775 10779 10783 10787 10791 10794 10797 10800 10805 10808 10811 10815 10818 10821 10824 10827 10829 10831 10832 10834 10836 10837 10839 10840 10841 10843 10843 10844 10845 10845 10846 10847 10847 10848 10849 10850 10851 10852 10853 10854 10855 10855 10856 10857 10858 10858 10857 10857 10858 10858 10857 10857 10856 10856 10856 10855 10855 10854 10854 10853
10589 10600 10611 10621 10632 10641 10647 10653 10662 10669 10676 10683 10690 10697 10704 10711 10718 10724 10730 10736 10742 10746 10750 10753 10757 10762 10765 10768 10772 10776 10780 10784 10787 10790 10794 10798 10802 10805 10809 10811 10814 10817 10820 10822 10824 10826 10828 10830 10831 10832 10834 10835 10836 10837 10838 10839 10839 10839 10840 10841 10842 10843 10844 10844 10845 10846 10847 10848 10848 10849 10850 10851 10851 10851 10851 10851 10851 10850 10850 10850 10850 10849 10849 10848 10848 10847 10846
10582 10592 10602 10613 10622 10629 10635 10643 10652 10659 10665 10672 10680 10689 10697 10704 10711 10717 10722 10728 10734 10739 10743 10746 10750 10754 10758 10762 10765 10769 10772 10776 10780 10784 10787 10791 10795 10799 10802 10805 10807 10810 10812 10814 10817 10819 10821 10823 10824 10826 10827 10829 10830 10830 10831 10832 10833 10833 10834 10834 10835 10836 10836 10837 10838 10839 10840 10841 10841 10842 10843 10843 10844 10844 10844 10844 10845 10844 10843 10842 10842 10842 10842 10841 10841 10841 10840
10575 10586 10597 10606 10614 10621 10626 10633 10641 10648 10655 10663 10672 10681 10688 10695 10702 10708 10714 10720 10726 10730 10735 10738 10742 10746 10750 10754 10758 10761 10765 10769 10773 10777 10781 10785 10789 10792 10796 10798 10801 10802 10804 10806 10808 10811 10813 10815 10817 10819 10820 10822 10823 10824 10824 10824 10825 10826 10826 10827 10828 10828 10829 10830 10831 10832 10833 10834 10834 10835 10835 10836 10837 10837 10837 10837 10838 10838 10836 10835 10835 10835 10835 10834 10834 10833 10832
10566 10579 10588 10594 10601 10608 10613 10619 10629 10638 10647 10655 10664 10671 10679 10686 10693 10700 10706 10712 10718 10723 10727 10731 10734 10737 10741 10745 10749 10753 10757 10761 10765 10770 10774 10778 10782 10785 10788 10791 10794 10796 10797 10799 10801 10803 10805 10807 10809 10811 10813 10814 10815 10816 10817 10818 10818 10818 10819 10819 10820 10821 10822 10823 10824 10825 10826 10827 10827 10828 10828 10828 10829 10829 10829 10829 10830 10830 10829 10827 10827 10827 10827 10826 10825 10823 10823
10558 10569 10575 10581 10590 10597 10602 10610 10621 10631 10638 10646 10654 10662 10669 10678 10685 10692 10698 10704 10709 10714 10719 10722 10725 10728 10730 10734 10739 10744 10749 10754 10758 10762 10766 10770 10774 10778 10781 10784 10787 10789 10791 10793 10794 10796 10798 10799 10801 10803 10804 10806 10807 10808 10810 10811 10811 10812 10812 10812 10813 10813 10814 10815 10816 10816 10817 10818 10819 10820 10820 10820 10821 10821 10821 10821 10821 10821 10821 10819 10819 10819 10819 10818 10817 10815 10815
10548 10557 10564 10572 10581 10589 10594 10602 10612 10620 10627 10636 10645 10653 10661 10669 10676 10683 10689 10694 10700 10704 10709 10713 10716 10718 10721 10724 10729 10735 10742 10747 10751 10755 10758 10763 10767 10770 10774 10777 10779 10782 10784 10785 10787 10789 10790 10792 10794 10795 10796 10798 10799 10800 10801 10802 10804 10804 10805 10805 10806 10806 10806 10807 10807 10807 10808 10809 10810 10810 10811 10812 10813 10813 10813 10813 10812 10812 10812 10811 10811 10811 10810 10810 10809 10807 10807
10538 10545 10553 10562 10572 10580 10585 10592 10601 10611 10620 10628 10636 10643 10651 10659 10666 10672 10678 10683 10689 10694 10699 10703 10707 10710 10713 10716 10721 10727 10733 10739 10744 10748 10752 10755 10759 10763 10766 10769 10772 10774 10776 10778 10780 10781 10783 10785 10786 10788 10789 10790 10791 10792 10793 10793 10795 10795 10796 10797 10798 10798 10799 10799 10799 10799 10800 10800 10801 10802 10802 10803 10804 10805 10805 10805 10804 10803 10803 10802 10802 10802 10802 10802 10801 10799 10799
10529 10536 10543 10554 10565 10573 10577 10584 10595 10606 10614 10620 10626 10633 10641 10649 10656 10662 10667 10673 10679 10685 10690 10695 10698 10702 10705 10709 10713 10717 10723 10729 10735 10740 10744 10747 10751 10754 10758 10761 10764 10766 10768 10770 10772 10773 10775 10777 10778 10779 10780 10782 10783 10784 10785 10785 10785 10786 10787 10788 10789 10789 10790 10791 10791 10791 10791 10792 10793 10793 10794 10794 10795 10795 10796 10796 10796 10795 10794 10794 10793 10793 10793 10794 10793 10792 10792
10520 10526 10535 10548 10561 10567 10571 10579 10590 10599 10604 10609 10616 10624 10631 10638 10645 10652 10658 10663 10670 10675 10681 10686 10690 10693 10697 10700 10704 10708 10712 10717 10724 10730 10735 10739 10743 10746 10749 10752 10755 10757 10759 10761 10763 10764 10766 10768 10770 10771 10772 10773 10775 10776 10776 10776 10776 10776 10777 10778 10779 10780 10781 10781 10782 10783 10783 10784 10785 10785 10785 10786 10786 10786 10786 10786 10786 10787 10786 10785 10784 10784 10783 10783 10784 10784 10786
10509 10515 10526 10540 10550 10555 10561 10570 10578 10583 10590 10599 10607 10614 10622 10629 10636 10642 10648 10653 10660 10665 10670 10676 10681 10684 10687 10691 10695 10699 10703 10708 10713 10719 10725 10730 10734 10737 10741 10744 10746 10748 10750 10752 10754 10756 10757 10759 10761 10762 10763 10764 10766 10767 10767 10767 10767 10767 10767 10768 10768 10770 10771 10772 10773 10774 10774 10775 10776 10776 10776 10777 10776 10777 10777 10777 10777 10777 10776 10775 10774 10773 10773 10773 10774 10774 10777
10496 10503 10515 10527 10535 10540 10547 10555 10561 10569 10580 10590 10598 10606 10614 10620 10626 10632 10638 10643 10649 10655 10660 10665 10670 10674 10678 10682 10686 10690 10695 10699 10704 10709 10713 10718 10723 10727 10731 10734 10737 10739 10741 10743 10745 10747 10748 10750 10751 10752 10753 10755 10756 10757 10757 10758 10757 10757 10757 10757 10758 10759 10760 10761 10763 10764 10765 10765 10766 10767 10767 10767 10767 10767 10767 10767 10767 10767 10767 10765 10764 10763 10762 10762 10762 10763 10766
10486 10493 10505 10515 10522 10528 10537 10545 10552 10562 10573 10582 10589 10597 10604 10609 10615 10622 10628 10633 10639 10645 10651 10656 10661 10665 10669 10674 10678 10681 10685 10690 10694 10698 10701 10705 10710 10715 10719 10723 10727 10729 10731 10734 10736 10737 10739 10740 10741 10743 10744 10745 10746 10747 10747 10748 10748 10747 10747 10748 10748 10749 10750 10751 10752 10753 10755 10756 10757 10757 10757 10757 10757 10757 10757 10758 10758 10758 10758 10757 10755 10754 10753 10752 10751 10750 10753
10477 10484 10494 10504 10512 10521 10531 10540 10547 10556 10564 10573 10581 10588 10593 10599 10605 10611 10617 10623 10630 10636 10642 10648 10652 10656 10660 10664 10669 10673 10676 10680 10684 10688 10691 10694 10698 10703 10707 10711 10715 10718 10721 10724 10726 10728 10729 10731 10732 10733 10734 10735 10736 10737 10737 10738 10738 10738 10738 10738 10738 10739 10740 10741 10742 10743 10745 10746 10746 10747 10747 10747 10747 10747 10748 10749 10749 10749 10749 10748 10747 10746 10744 10742 10740 10739 10740
10469 10477 10487 10496 10505 10514 10524 10532 10539 10547 10556 10566 10575 10579 10583 10589 10595 10600 10607 10615 10620 10625 10632 10638 10642 10646 10651 10655 10659 10664 10667 10671 10674 10678 10681 10685 10688 10692 10696 10700 10704 10708 10711 10713 10715 10717 10720 10721 10723 10723 10724 10725 10726 10727 10728 10728 10728 10728 10727 10727 10727 10728 10729 10730 10731 10733 10734 10735 10736 10737 10737 10737 10738 10738 10739 10740 10740 10740 10739 10739 10738 10737 10735 10733 10730 10729 10731
10463 10472 10482 10492 10501 10509 10517 10525 10532 10540 10549 10558 10565 10569 10573 10579 10583 10588 10596 10604 10610 10614 10621 10627 10632 10637 10641 10646 10650 10654 10657 10661 10665 10669 10672 10676 10680 10683 10686 10690 10693 10697 10700 10703 10705 10707 10710 10712 10712 10713 10713 10714 10716 10717 10718 10718 10717 10717 10716 10716 10716 10717 10718 10719 10720 10722 10723 10725 10726 10727 10727 10727 10728 10729 10729 10730 10730 10730 10730 10730 10729 10728 10726 10723 10720 10719 10722
10456 10465 10475 10486 10496 10504 10512 10519 10526 10532 10539 10546 10551 10556 10561 10567 10573 10580 10588 10595 10600 10605 10610 10616 10622 10627 10632 10635 10639 10642 10647 10651 10655 10659 10663 10667 10671 10674 10677 10679 10683 10686 10690 10692 10695 10697 10699 10701 10701 10701 10702 10703 10704 10706 10706 10706 10705 10705 10705 10704 10705 10705 10706 10708 10709 10711 10713 10715 10716 10717 10717 10718 10719 10719 10720 10720 10720 10720 10720 10720 10720 10720 10718 10716 10713 10712 10713
10450 10457 10467 10477 10488 10497 10505 10511 10516 10521 10527 10534 10539 10545 10550 10557 10565 10572 10578 10584 10590 10594 10600 10606 10612 10616 10620 10623 10627 10631 10636 10640 10645 10649 10653 10657 10662 10665 10667 10670 10673 10677 10680 10683 10685 10687 10690 10690 10689 10689 10691 10692 10693 10693 10694 10693 10693 10693 10693 10693 10693 10694 10695 10697 10698 10700 10702 10705 10706 10707 10707 10708 10709 10710 10710 10710 10710 10710 10710 10710 10710 10711 10711 10709 10707 10705 10706
10445 10452 10460 10470 10479 10487 10493 10499 10504 10510 10516 10523 10530 10536 10543 10551 10558 10563 10567 10573 10579 10585 10591 10596 10601 10605 10609 10613 10616 10620 10625 10630 10634 10638 10643 10648 10652 10656 10659 10662 10665 10668 10671 10673 10675 10678 10681 10681 10679 10679 10680 10681 10681 10682 10682 10682 10682 10682 10681 10681 10682 10683 10684 10685 10687 10689 10692 10695 10696 10697 10698 10699 10700 10700 10700 10700 10700 10700 10700 10699 10700 10701 10702 10701 10700 10699 10699
10439 10446 10454 10462 10469 10475 10481 10488 10496 10502 10509 10517 10524 10531 10537 10544 10549 10554 10558 10565 10572 10578 10582 10587 10591 10596 10600 10603 10606 10610 10615 10619 10624 10628 10633 10638 10643 10647 10650 10653 10657 10659 10661 10663 10665 10668 10671 10672 10670 10668 10669 10669 10670 10671 10672 10672 10672 10671 10670 10670 10671 10671 10672 10673 10675 10678 10681 10684 10686 10688 10689 10690 10691 10691 10691 10691 10690 10689 10689 10689 10689 10690 10692 10692 10692 10691 10692
10434 10440 10446 10453 10460 10466 10473 10480 10487 10492 10500 10510 10518 10523 10529 10536 10542 10547 10553 10560 10565 10569 10573 10576 10581 10586 10589 10593 10597 10602 10606 10609 10614 10618 10623 10628 10633 10637 10640 10643 10646 10649 10651 10653 10655 10657 10660 10662 10661 10659 10659 10659 10660 10661 10662 10662 10661 10660 10660 10659 10660 10660 10661 10663 10665 10667 10670 10672 10675 10677 10677 10679 10680 10682 10682 10681 10680 10679 10678 10678 10678 10679 10681 10682 10682 10683 10683
10430 10434 10439 10444 10450 10456 10464 10472 10478 10484 10493 10502 10508 10514 10521 10529 10535 10541 10547 10551 10554 10558 10562 10566 10571 10575 10579 10583 10588 10593 10597 10600 10603 10608 10613 10617 10622 10626 10630 10633 10636 10639 10641 10643 10645 10646 10649 10652 10652 10650 10649 10650 10650 10651 10651 10650 10649 10649 10650 10650 10650 10651 10652 10653 10655 10657 10659 10661 10662 10664 10665 10666 10668 10669 10670 10670 10670 10669 10668 10668 10667 10668 10670 10671 10672 10673 10674
10428 10432 10436 10441 10445 10451 10458 10467 10474 10480 10487 10494 10500 10506 10513 10518 10522 10527 10533 10537 10542 10547 10551 10555 10559 10564 10570 10576 10581 10585 10588 10590 10593 10597 10602 10606 10610 10614 10618 10622 10626 10628 10630 10632 10634 10635 10636 10639 10640 10640 10639 10639 10640 10641 10642 10641 10640 10639 10640 10640 10640 10641 10642 10643 10645 10646 10648 10650 10651 10653 10654 10655 10655 10657 10657 10658 10659 10659 10658 10658 10657 10657 10658 10659 10660 10662 10664
10427 10431 10434 10438 10443 10448 10455 10461 10465 10470 10476 10483 10491 10498 10504 10508 10512 10518 10524 10528 10534 10538 10541 10543 10549 10556 10562 10568 10572 10574 10577 10579 10582 10586 10590 10594 10597 10601 10606 10610 10614 10617 10619 10620 10621 10622 10624 10627 10629 10629 10630 10630 10631 10632 10632 10632 10631 10630 10630 10630 10630 10631 10632 10633 10634 10635 10637 10638 10640 10641 10643 10644 10645 10645 10646 10646 10647 10648 10648 10648 10647 10647 10648 10648 10649 10650 10653
10427 10430 10433 10436 10441 10446 10451 10456 10460 10464 10470 10476 10483 10489 10495 10501 10507 10512 10516 10521 10527 10531 10533 10537 10543 10549 10555 10558 10561 10563 10565 10568 10571 10575 10579 10582 10585 10590 10594 10598 10602 10605 10607 10609 10611 10612 10614 10616 10618 10619 10620 10621 10621 10622 10622 10621 10621 10620 10620 10620 10620 10621 10621 10622 10623 10624 10625 10627 10628 10630 10632 10633 10633 10634 10634 10635 10636 10636 10637 10637 10637 10637 10637 10637 10637 10638 10641
10427 10430 10433 10436 10439 10443 10446 10450 10454 10459 10465 10471 10477 10482 10488 10494 10500 10505 10509 10515 10521 10524 10526 10530 10535 10540 10544 10548 10550 10552 10555 10557 10560 10564 10568 10571 10574 10578 10582 10586 10590 10594 10596 10598 10600 10602 10604 10605 10606 10608 10609 10611 10612 10612 10611 10610 10610 10610 10611 10611 10611 10610 10610 10611 10612 10612 10613 10614 10616 10618 10620 10621 10622 10622 10622 10623 10623 10624 10625 10626 10626 10625 10624 10624 10625 10626 10629
10429 10430 10433 10436 10439 10442 10445 10448 10452 10456 10461 10466 10471 10476 10481 10486 10492 10496 10501 10508 10512 10513 10516 10521 10527 10531 10534 10537 10540 10542 10545 10547 10549 10553 10557 10560 10563 10566 10569 10573 10577 10581 10584 10586 10588 10590 10592 10593 10595 10598 10600 10601 10603 10603 10601 10599 10599 10600 10602 10602 10602 10600 10600 10601 10602 10602 10602 10603 10603 10605 10607 10608 10609 10610 10611 10611 10611 10611 10612 10614 10614 10612 10612 10612 10613 10614 10617
10431 10432 10433 10436 10438 10441 10444 10447 10450 10453 10458 10462 10467 10471 10475 10480 10485 10488 10493 10498 10501 10502 10506 10511 10516 10519 10522 10526 10529 10532 10534 10536 10539 10543 10547 10549 10551 10554 10558 10562 10566 10569 10573 10575 10577 10578 10580 10582 10585 10588 10590 10592 10593 10593 10591 10589 10588 10589 10591 10592 10593 10591 10591 10591 10592 10592 10593 10593 10593 10593 10594 10595 10596 10597 10598 10599 10599 10599 10600 10601 10601 10600 10599 10600 10601 10602 10604
10433 10435 10436 10438 10439 10441 10443 10446 10449 10452 10455 10458 10462 10466 10470 10474 10478 10482 10485 10488 10491 10493 10497 10501 10504 10507 10510 10514 10519 10522 10524 10527 10530 10533 10535 10537 10539 10542 10546 10551 10554 10557 10560 10563 10566 10568 10570 10572 10575 10578 10580 10581 10582 10581 10579 10578 10578 10579 10580 10582 10583 10582 10581 10581 10581 10581 10582 10582 10582 10582 10583 10584 10585 10585 10586 10587 10587 10588 10588 10589 10589 10589 10589 10589 10590 10591 10593
10434 10436 10437 10439 10440 10442 10444 10446 10448 10451 10454 10457 10459 10462 10465 10469 10472 10475 10478 10481 10484 10487 10490 10493 10496 10498 10501 10505 10510 10513 10515 10517 10519 10521 10524 10526 10528 10531 10534 10538 10542 10545 10548 10552 10554 10557 10559 10562 10564 10567 10568 10569 10568 10568 10568 10568 10568 10568 10569 10571 10572 10572 10571 10570 10570 10569 10570 10571 10571 10571 10572 10573 10574 10574 10575 10575 10576 10577 10578 10579 10579 10579 10579 10579 10581 10582 10583
10435 10436 10437 10439 10440 10442 10444 10446 10448 10450 10453 10455 10457 10460 10462 10464 10466 10469 10472 10474 10477 10480 10483 10486 10488 10489 10491 10494 10499 10502 10504 10505 10507 10510 10513 10515 10517 10519 10522 10526 10529 10532 10536 10539 10542 10545 10547 10549 10552 10554 10555 10555 10555 10555 10556 10556 10556 10556 10557 10559 10561 10561 10561 10560 10559 10559 10558 10559 10561 10561 10561 10562 10563 10563 10564 10565 10566 10567 10567 10568 10569 10570 10570 10570 10571 10573 10573
10434 10435 10437 10438 10440 10441 10443 10445 10447 10448 10450 10452 10454 10455 10457 10458 10460 10463 10465 10467 10470 10472 10475 10477 10479 10481 10483 10486 10489 10491 10493 10495 10497 10499 10502 10505 10507 10509 10512 10515 10517 10519 10522 10526 10529 10531 10533 10535 10537 10539 10540 10541 10542 10543 10544 10544 10544 10544 10545 10547 10549 10550 10550 10550 10549 10549 10548 10549 10550 10551 10550 10551 10552 10553 10554 10555 10556 10557 10558 10558 10559 10560 10561 10561 10562 10563 10564
10431 10433 10434 10435 10437 10439 10440 10442 10444 10446 10447 10448 10449 10450 10451 10453 10454 10456 10458 10459 10461 10463 10465 10468 10470 10472 10474 10477 10480 10483 10485 10486 10488 10490 10492 10495 10498 10499 10502 10504 10505 10506 10508 10511 10514 10517 10519 10521 10522 10524 10526 10527 10529 10530 10531 10531 10531 10532 10533 10534 10536 10537 10538 10538 10539 10538 10537 10538 10539 10540 10540 10541 10542 10543 10543 10544 10546 10547 10548 10548 10549 10550 10551 10551 10552 10553 10554
10427 10428 10430 10431 10432 10434 10436 10437 10439 10441 10442 10443 10443 10444 10445 10446 10448 10449 10451 10452 10454 10456 10459 10461 10463 10464 10466 10468 10471 10474 10476 10477 10479 10481 10483 10486 10488 10490 10492 10494 10495 10496 10497 10498 10500 10502 10505 10508 10510 10511 10513 10515 10516 10517 10518 10519 10519 10520 10521 10521 10523 10524 10526 10527 10527 10527 10526 10526 10527 10529 10529 10530 10531 10532 10532 10533 10535 10536 10537 10537 10538 10539 10540 10541 10542 10542 10543
10422 10424 10425 10426 10427 10428 10429 10431 10432 10434 10435 10436 10436 10437 10438 10440 10441 10442 10444 10445 10447 10449 10451 10453 10454 10455 10457 10459 10462 10464 10466 10467 10469 10471 10473 10476 10479 10480 10482 10484 10485 10486 10487 10488 10489 10490 10492 10495 10497 10499 10501 10503 10504 10505 10506 10506 10507 10508 10508 10509 10509 10511 10512 10513 10514 10514 10515 10515 10516 10516 10517 10518 10520 10521 10521 10522 10523 10524 10525 10526 10527 10528 10528 10529 10530 10531 10532
10417 10419 10420 10421 10422 10423 10424 10425 10426 10427 10428 10429 10430 10431 10432 10433 10434 10435 10437 10438 10439 10441 10442 10444 10446 10447 10449 10450 10452 10454 10456 10457 10458 10460 10462 10465 10467 10469 10470 10472 10473 10474 10476 10478 10480 10481 10482 10483 10486 10488 10489 10491 10492 10493 10494 10494 10494 10494 10495 10496 10497 10498 10498 10499 10500 10501 10502 10503 10504 10504 10505 10506 10507 10508 10509 10510 10511 10512 10513 10514 10515 10516 10517 10517 10518 10519 10520